Location: Rounton
(54.4000°N, 1.3500°W)
Time: 13:07:08
(UTC+00:00)

Transit 2A Rocket - Pass Details

Date: 01 December 2021
Orbit: 584 x 918 km, 66.7° (Epoch: 17 January)

Event Time Altitude Azimuth Distance (km) Brightness Sun altitude
Rises 08:29:06 0° 201° (SSW) 3,339 8.6 2.0°
Reaches altitude 10° 08:31:30 10° 196° (SSW) 2,455 8.0 2.2°
Maximum altitude 08:37:04 53° 121° (ESE) 1,076 6.5 2.8°
Drops below altitude 10° 08:42:58 10° 47° (NE) 2,608 7.8 3.4°
Sets 08:45:35 0° 43° (NE) 3,565 8.4 3.7°
